STARLINK-34047, 63821

Orbit data source: Space-Track

STARLINK-34047, 63821 is a payload satellite owned by SpaceX/Seattle (US) in LEO that was launched on Sun, 04 May 2025 UTC via an FALCON 9 launch vehicle from the Air Force Eastern Test Range (AFETR). Payload-class satellites include a variety of spacecraft equipped with specific instruments for various scientific and technological missions. These include communications satellites like Starlink; space stations such as the ISS; scientific satellites like the Hubble; Earth observation satellites from companies like Planet Labs, Umbra, and HawkEye 360; GPS; miniature CubeSats for education and research; and military/defense satellites.

Loading next visibility...
Identifier
63821, 2025-092T
Orbit
LEO
Country
Flag of USUS
Related business
Manufacturer
SpaceX/Seattle
Mission
Operational Commercial Communications
Bus & Motor
STARLINK V2MO, Unknown motor
Mass
575 kg wet, ~530 kg dry
Launch date (UTC)
2025-05-04 (1 year ago)
Launch vehicle
FALCON 9
Launch site
Air Force Eastern Test Range (AFETR)
Object type
Payload
Rocket body
Debris
Shape & HBR
Box + 2 Pan, 17.7 m
Radar Cross Section
36.964 m², Large (>1 m²)

Expand to show TLE details & history
Last TLE update: 1 day ago

TLE from 1 day ago
0 STARLINK-34047
1 63821U 25092T   26119.36773524  .00024999  00000-0  91528-3 0  9995
2 63821  42.9968 246.4763 0001117 282.1428  77.9298 15.27565724 56411
Epoch: 2026-04-29T08:49Z
TLE epoch observation values (Epoch: 2026-04-29T08:49:32.324Z)
Latitude
-0.00006°
Longitude
-103.23815°
Altitude
482.707 km
Speed
7.626 km/s
True Right ascension
16h 25m 54s
True Declination
0° 00' 00"
Sunlit
Object was in full shadow at epoch
Visualization orbit readout
Latitude
Unknown
Longitude
Unknown
Altitude
Unknown
Speed
Unknown
Apparent Right ascension
Unknown
Apparent Declination
Unknown
Sunlit
N/A
Visualization observer readout
Local Sidereal Time
16:56:36
Azimuth
Unknown
Elevation
Unknown
Doppler factor
Unknown
Orbital elements
Apogee altitude
485.804 km
Perigee altitude
484.271 km
Semi-major axis
6,863.175 km
Eccentricity
0.00011
Inclination
42.9968°
RAAN
246.4763°
Arg. of periapsis
282.1428°
True anomaly
77.94232°
Mean anomaly
77.9298°
Eccentric anomaly
77.93606°
Mean motion
3.81729 °/min
Orbital period
94.31 mins
BSTAR
0.00091528
Loading maneuver chart data...
Computing Atmospheric mass density...
Loading historical data...
Loading historical data...
Loading historical data...
Loading historical data...
Loading historical data...
Loading historical data...
Loading historical data...

Documentation

Showing up to 5 results
|